Tracking 19827 objects as of 21-Aug-2019
HD Live streaming from Space Station
objects crossing your sky now

FENGYUN 1C DEB

Track FENGYUN 1C DEB now!
10-day predictions


NORAD ID: 31718
Int'l Code: 1999-025CDR
Perigee: 532.2 km
Apogee: 602.4 km
Inclination: 96.6 °
Period: 95.9 minutes
Semi major axis: 6938 km
RCS: 0.0022 m2 (small)
Launch date: May 10, 1999
Source: People's Republic of China (PRC)
Launch site: Taiyaun Space Center, China (TSC)

Note: This is SATELLITE DEBRIS
aabbcc
Your satellite tracking list
Your tracking list is empty




NASA's NSSDC Master Catalog

Two Line Element Set (TLE):
1 31718U 99025CDR 18065.03339915 +.00008746 +00000-0 +64948-3 0  9997
2 31718 096.6491 354.1703 0050549 076.5762 284.1093 15.02179894476141
Source of the keplerian elements: AFSPC